Location: Brusselsch Zeekanaal
(50.8667°N, 4.3667°E)
Time: 02:57:06
(UTC+00:00)

Cosmos 1153 Rocket - Pass Details

Date: 08 November 2025
Orbit: 953 x 1005 km, 82.9° (Epoch: 15 December)

Event Time Altitude Azimuth Distance (km) Brightness Sun altitude
Rises 03:36:41 0° 350° (N) 3,648 7.5 -30.0°
Reaches altitude 10° 03:39:10 10° 351° (N) 2,702 6.8 -29.6°
Maximum altitude 03:45:22 87° 79° (E) 973 4.4 -28.7°
Drops below altitude 10° 03:51:36 10° 171° (S) 2,713 6.8 -27.7°
Sets 03:54:06 0° 172° (S) 3,664 7.5 -27.3°
